This demonstration page uses our WeatherBlox Daily Observations layout. Learn more.

Left ArrowRight Arrow

39.92423, -83.80882

Hourly Observations for September 26, 2015

Temp ( °F °C ) Dew Point ( °F °C ) Humidity (%) Winds ( mph kmh ) Pressure ( in mb ) Visibility ( mi km ) Precip ( " mm )
12:56 am 00:56 Clear 59 15 53 11.6 80 80 E 3 6 30.23 1024 10 16 N/A
1:56 am 01:56 Clear 60 15.5 54 12.2 81 81 E 5 7 30.23 1024 10 16 N/A
2:56 am 02:56 Clear 59 15 54 12.2 83 83 ENE 3 6 30.22 1024 10 16 N/A
3:56 am 03:56 Clear with Light Rain 60 15.5 55 12.7 84 84 ENE 6 9 30.22 1023 10 16 N/A
4:56 am 04:56 Clear 60 15.5 57 13.8 90 90 ENE 8 13 30.21 1023 10 16 N/A
5:56 am 05:56 Mostly Cloudy 61 16.1 56 13.3 84 84 ENE 7 11 30.22 1023 10 16 N/A
6:56 am 06:56 Mostly Cloudy 61 16.1 56 13.3 84 84 E 9 15 30.23 1024 10 16 N/A
7:56 am 07:56 Mostly Cloudy 62 16.6 56 13.3 81 81 E 9 15 30.24 1024 10 16 N/A
8:56 am 08:56 Mostly Sunny 61 16.1 56 13.3 84 84 E 8 13 30.26 1025 10 16 N/A
9:56 am 09:56 Mostly Sunny 65 18.3 55 12.7 70 70 E 12 19 30.26 1025 10 16 N/A
10:56 am 10:56 Mostly Cloudy 67 19.4 55 12.7 65 65 E 13 20 30.27 1025 10 16 N/A
11:56 am 11:56 Cloudy 72 22.2 56 13.3 57 57 ENE 14 22 30.25 1025 10 16 N/A
12:56 pm 12:56 Mostly Cloudy 73 22.7 56 13.3 55 55 E 15 24 30.25 1025 10 16 N/A
1:56 pm 13:56 Mostly Cloudy 77 25 57 13.8 50 50 E 17 28 30.24 1024 10 16 N/A
2:56 pm 14:56 Mostly Cloudy 74 23.3 56 13.3 54 54 ESE 17 28 30.22 1023 10 16 N/A
3:56 pm 15:56 Cloudy 73 22.7 57 13.8 57 57 ESE 12 19 30.21 1023 10 16 N/A
4:56 pm 16:56 Cloudy 73 22.7 56 13.3 55 55 ESE 10 17 30.21 1023 10 16 N/A
5:56 pm 17:56 Cloudy 71 21.6 57 13.8 61 61 ESE 14 22 30.22 1024 10 16 N/A
6:56 pm 18:56 Cloudy 70 21.1 58 14.4 66 66 ESE 15 24 30.23 1024 10 16 N/A
7:31 pm 19:31 Cloudy 66 19 61 16 83 83 SSE 7 11 30.24 1024 8 13 N/A
7:56 pm 19:56 Cloudy 66 18.8 60 15.5 81 81 SE 10 17 30.24 1024 10 16 N/A
8:56 pm 20:56 Cloudy 63 17.2 62 16.6 96 96 ESE 10 17 30.25 1024 10 16 N/A
9:56 pm 21:56 Cloudy 63 17.2 62 16.6 96 96 SE 9 15 30.24 1024 8 13 N/A
10:05 pm 22:05 Cloudy 63 17 63 17 100 100 SE 8 13 30.27 1025 7 11 N/A
10:20 pm 22:20 Mostly Cloudy 63 17 63 17 100 100 SE 8 13 30.24 1024 10 16 N/A
10:56 pm 22:56 Cloudy 64 17.7 62 16.6 93 93 SE 6 9 30.24 1024 10 16 N/A
11:56 pm 23:56 Partly Cloudy 63 17.2 62 16.6 96 96 E 6 9 30.23 1024 10 16 N/A

Powered by AerisWeather